Location: Berg
(47.2344°N, 9.5296°E)
Time: 22:18:45
(UTC+00:00)

NOSS 3-1 (A) - Pass Details

Date: 24 January 2021
Orbit: 735 x 1477 km, 63.4° (Epoch: 02 March)

Event Time Altitude Azimuth Distance (km) Brightness Sun altitude
Rises 16:56:37 0° 318° (NW) 3,792 6.9 -7.8°
Reaches altitude 10° 16:59:16 10° 326° (NW) 2,945 6.2 -8.2°
Maximum altitude 17:05:57 41° 35° (NE) 1,727 4.4 -9.3°
Drops below altitude 10° 17:13:44 10° 103° (ESE) 3,430 5.8 -10.5°
Enters shadow 17:15:14 - 107° (ESE) 3,902 6.1 -10.8°
